sat.trackr.live / text

‹ back to catalog

STARLINK-31286

NORAD 59082 · 2024-041J

PAYLOAD ACTIVE UNKNOWN

§ Identity

Operator
Country
US
Launch date
2024-02-29
Launch site
AFETR
Launch vehicle
Mass (kg)
RCS (m²)

Purposes: comms

External: N2YO · Heavens-Above · Gunter

§ Orbital elements

Epoch: 2026-09-20T19:12:54.810432Z

Period
94.27 min
Inclination
43.0013°
Eccentricity
0.0001277
Mean motion
15.27575818 rev/d
Perigee alt
482.2 km
Apogee alt
483.9 km
Semi-major
6,861.2 km
B*
2.5288e-5
RAAN
288.6118°
Arg perigee
260.8254°
Mean anomaly
99.2453°
Rev number
14,419

§ Raw data

STARLINK-312861 59082U 24041J   26263.80063438  .00000434  00000+0  25288-4 0  99952 59082  43.0013 288.6118 0001277 260.8254  99.2453 15.27575818144195

JSON: /api/v1/satellites/59082 · /tle

For live sub-satellite position, see the globe view (requires WebGL).

§ Visibility from observer

Set your observer location to see the next 7 days of passes ≥ 10°. The values pass through the URL so the page stays shareable.

No JS? Fill the form by hand. The geolocation button needs JavaScript.